Location: Amsterdam
(30.7274°N, 84.4357°W)
Time: 05:50:43
(UTC+00:00)

Explorer 11/Cluster Stage 4 - Pass Details

Date: 25 February 2026
Orbit: 463 x 1175 km, 28.8° (Epoch: 13 March)

Event Time Altitude Azimuth Distance (km) Brightness Sun altitude
Rises 20:38:34 0° 267° (W) 2,848 10.2 33.6°
Reaches altitude 10° 20:41:51 10° 243° (WSW) 1,813 9.9 33.0°
Maximum altitude 20:44:12 15° 208° (SSW) 1,457 9.2 32.6°
Drops below altitude 10° 20:46:24 10° 173° (S) 1,673 8.7 32.2°
Sets 20:49:15 0° 148° (SSE) 2,493 9.2 31.7°
